Find Starlink 32312

NORAD ID: 61711 Int'l Des: 2024-196 Owner: SPXS Country: US Constellation: starlink operational
LEOCIRCULAR

Live-Position

3D-Globus wird geladen...

Über Starlink 32312

Beschreibung wird geladen...

Nächste Überflüge

Passes for default location (London). Set your location on the main map for personalized predictions.

Höhenverlauf

Loading altitude history...

Zweizeiliger Elementsatz

1 61711U 24196E 26119.98390235 .00001248 00000-0 54246-4 0 9996
2 61711 53.1596 222.8196 0000726 82.7834 277.3249 15.30204365 85011
Epoch: 29. Apr. 2026 • Age: 10 hours

Aktueller Status

Höhe 475.6 km
Geschwindigkeit 7.63 km/s
Subsatellitenpunkt 21.67°N, 20.06°E
Startdatum 30. Okt. 2024
Alter 1.4 years
Typ internet

Technische Details

Klassifizierung Payload
Masse 730.00 kg
Trockenmasse 700.00 kg
Gesamtmasse 730.00 kg
Länge 0.30 m
Durchmesser 4.10 m
Spannweite 29.00 m
Form Box + pan
Hersteller SPXS
Bus-Typ Starlink V2M
Phasenstatus In Orbit
Besitzer/Staat SPXS/US

Most Searched